Retour au catalogue

SOLRAD 3/INJUN 1

ActifScienceLEO
NORAD 117·PAYLOAD·🇺🇸 United States

Lancé Jun 29, 1961 depuis Cape Canaveral Space Force Station

Loading…

Prochains Passages (prochaines 24 heures)

TLE

FraisSource: Space-Track

Époque: Sep 14, 2026, 22:40 UTC

1 00117U 61015B   26257.94448211 -.00000016  00000-0  47520-4 0  9997
2 00117  66.8121 146.3172 0083357 237.6917 121.6070 13.90198462306537

Suivez SOLRAD 3/INJUN 1 en temps réel avec AllMySat

Download on the App Store